Regional Weather Roundup
Issued by NWS San Diego, CA

Home | Current Version | Previous Version | Text Only | Print | Product List | Glossary On
Versions: 1 2 3 4 5 6 7 8 9 10 11 12 13 14 15 16 17 18 19 20 21 22 23 24 25 26 27 28 29 30 31 32 33 34 35 36 37 38 39 40 41 42 43 44 45 46 47 48 49 50
000
ASUS46 KSGX 240011
RWRSGX

SAN DIEGO HOURLY WEATHER ROUNDUP
NATIONAL WEATHER SERVICE SAN DIEGO CA
500 PM PDT SAT SEP 23 2017

NOTE: "FAIR" INDICATES FEW OR NO CLOUDS BELOW 12,000 FEET WITH NO
SIGNIFICANT WEATHER AND/OR OBSTRUCTIONS TO VISIBILITY.

CAZ042-043-060-061-PZZ750-775-240100-

GREATER SAN DIEGO AREA

CITY           SKY/WX    TMP DP  RH WIND       PRES   REMARKS
SAN DIEGO AP   MOSUNNY   70  55  59 W9        29.85F
NATIONAL CITY    N/A     69  58  68 W2        29.86F
CHULA VISTA      N/A     70  59  68 W1        29.76F
IMPERIAL BEACH SUNNY     68  53  58 W6        29.85S
BROWN FIELD    MOSUNNY   69  54  58 W8        29.84S
MIRAMAR MCAS   MOSUNNY   73  55  53 NW7       29.84S
MONTGOMERY FLD MOSUNNY   71  53  52 W9        29.84F

$$

NORTH SAN DIEGO COUNTY

CITY           SKY/WX    TMP DP  RH WIND       PRES   REMARKS
CAMP PENDLETON MOSUNNY   70  53  54 SW6       29.83S
OCEANSIDE AP   SUNNY     70  56  61 W12       29.83S
OCEANSIDE HBR    N/A     68  58  70 NW5       29.86S
VISTA            N/A     71  56  59 W2        29.80F
CARLSBAD       SUNNY     68  55  63 W9        29.83S
DEL MAR          N/A     68  58  70 SW1       29.86S
LA JOLLA SCRIP   N/A     68  59  73 SW6       29.83F
FALLBROOK        N/A     71  57  62 SW3       29.82F
ESCONDIDO        N/A     70  55  57 S5        29.84S
SAN MARCOS       N/A     70  56  63 SW12      29.85F
POWAY            N/A     73  55  54 CALM      29.84F

$$

EAST SAN DIEGO COUNTY

CITY           SKY/WX    TMP DP  RH WIND       PRES   REMARKS
RAMONA         SUNNY     69  53  56 SW9       29.84S
LA MESA          N/A     70  54  56 W6        29.77S
JAMUL            N/A     67  55  65 CALM      29.83S
DESCANSO N       N/A     60  49  68 W3        29.80S
CAMPO            N/A     65  49  56 W8        29.82R

$$

ORANGE COUNTY AND THE LOS ANGELES BASIN

CITY           SKY/WX    TMP DP  RH WIND       PRES   REMARKS
JOHN WAYNE AP  MOSUNNY   71  51  49 VRB7      29.83S
LAGUNA BEACH     N/A     73  59  62 S2        29.79S
LAKE FOREST FR   N/A     73  51  46 W3        29.72F
HUNTINGTON BCH   N/A     71  61  70 SW2       29.84S
LOS ALAMITOS   FAIR      71  57  60 S13       29.82F
FULLERTON      SUNNY     73  52  47 SW8       29.81S
LONG BEACH     SUNNY     74  49  41 W12       29.82F
L.A. AP        MOSUNNY   70  57  63 W14       29.83S
L.A. DOWNTOWN  SUNNY     73  49  42 W6        29.82S

$$

THE INLAND EMPIRE

CITY           SKY/WX    TMP DP  RH WIND       PRES   REMARKS
CORONA         SUNNY     73  52  47 W14       29.81S
CHINO          MOSUNNY   75  49  39 SW17      29.82S
ONTARIO        MOSUNNY   73  48  41 W13       29.81S
SAN BERNARDINO MOSUNNY   77  46  33 SW13      29.81R
RIVERSIDE AP   SUNNY     74  51  44 W14G23    29.81R
MORENO VALLEY    N/A     76  54  46 NW3       27.94S
MARCH ARB      SUNNY     74  45  35 W14G21    29.82R
HORSETHIEF CYN   N/A     74  41  30 NW3       29.81S
PERRIS           N/A     75  48  39 W8          N/A
HEMET EAST       N/A     72  45  37 SW8       29.86S
FRENCH VALLEY  FAIR      70  50  49 SW9       29.83S
TEMECULA         N/A     70  55  58 S9        29.87R

$$

SAN BERNARDINO AND RIVERSIDE COUNTY MOUNTAINS

CITY           SKY/WX    TMP DP  RH WIND       PRES   REMARKS
BIG BEAR AP    SUNNY     50  21  32 N5        29.97S
ANGELUS OAKS     N/A     55  41  60 CALM      29.80R
PINE COVE        N/A     50  39  64 CALM      29.87S

$$

SOUTHERN DESERT INCLUDING THE COACHELLA VALLEY

CITY           SKY/WX    TMP DP  RH WIND       PRES   REMARKS
PALM SPRINGS   SUNNY     86  32  14 W18       29.74F
THOUSAND PALMS   N/A     85  34  16 W3        29.70S
PALM DESERT      N/A     88  33  14 NW2       27.50S
THERMAL        SUNNY     87  28  12 W13       29.68S
BLYTHE         SUNNY     85  25  11 NW7       29.71S
IMPERIAL AP    SUNNY     86  31  13 N9        29.70S
EL CENTRO NAS  MOSUNNY   86  21   9 N6        29.72S
YUMA AZ        SUNNY     85  32  15 W7        29.70S
MEXICALI       SUNNY     84  23  10 NW7       29.71F

$$

UPPER DESERT

CITY           SKY/WX    TMP DP  RH WIND       PRES   REMARKS
VICTORVILLE AP SUNNY     70  21  16 NE3       29.87S
HESPERIA         N/A     71  30  22 N3        29.95S
PALMDALE       SUNNY     73  27  18 N5        29.86F
LANCASTER      SUNNY     72  27  18 S5        29.85F
EDWARDS AFB    MOSUNNY   73  24  16 S7        29.83S
DAGGETT        SUNNY     77  28  16 N12       29.82S
29 PALMS N     SUNNY     76  22  13 N7        29.88S
NEEDLES        SUNNY     84  26  12 N5        29.73S

$$

REGIONAL REPORTS

CITY           SKY/WX    TMP DP  RH WIND       PRES   REMARKS
SANTA BARBARA  SUNNY     68  55  63 SE6       29.81F
SANDBERG       SUNNY     61  35  37 N22G29    29.94S
LAS VEGAS NV   MOSUNNY   73  20  13 N9        29.81S
PHOENIX AZ     SUNNY     83  29  14 W14       29.69S
TIJUANA          N/A    N/A N/A N/A MISG        N/A

$$

OFFSHORE ISLANDS

CITY           SKY/WX    TMP DP  RH WIND       PRES   REMARKS
CATALINA ARPT  MOSUNNY   65  57  75 W9        29.87F
SAN NICOLAS IS HAZE      69  38  32 W14       29.85F VSB 1/4

$$

MARINE AND OFFSHORE BUOY REPORTS

STATION/POSITION SKY/WX   TEMP    WIND        PRES    VSBY  SWELL
                          AIR SEA DIR/SP/G                  HT/PER/DIR
                          (F)     (DEG/KT/KT) (MB)    (MI)  (FT/S/D)
TANNER BANKS               64 66  320/ 16/ 17 1010.8          5/320/11
S CLEMENTE BASIN           65 70  280/  8/ 10 1010.7          3/280/ 7
SAN NICOLAS IS.               64                N/A           3/310/11
SO. S. ROSA ISLA           62 62  300/ 17/ 21 1010.5F         5/290/11
W. S. BARBARA CH           60 60  300/ 12/ 16 1010.7S         5/300/11
M. S. BARBARA CH           63 65  280/ 10/ 12 1010.5F         3/250/ 7
S. MONICA BASIN               69  250/ 12/ 14 1010.2F         2/220/11
S PEDRO CHANNEL               66                N/A           2/170/11
CMP PENDLETON NS              69                N/A           2/210/12
OCEANSIDE OFFSHR              68                N/A           2/230/11
TORREY PINES OTR              68                N/A           2/220/11
SAN DIEGO BAY                 73              1010.9F
POINT LOMA SOUTH              71                N/A           2/220/11

$$





USA.gov is the U.S. government's official web portal to all federal, state and local government web resources and services.